{"data":{"norad_id":64602,"intl_designator":"2025-137J","name":"STARLINK-34435","alt_names":[],"object_type":"PAYLOAD","status":"ACTIVE","operator":null,"country":"US","launch_date":"2025-06-25","launch_site_code":"AFETR","launch_vehicle":null,"mission":null,"orbit_class":"UNKNOWN","rcs_meters":null,"size_class":null,"mass_kg":null,"dimensions":null,"purposes":["comms"],"wikipedia_slug":null,"has_3d_model":false,"image_url":null,"decayed_at":null,"tle_current":{"epoch":"2026-09-20T00:09:33.079968Z","epoch_age_seconds":173961,"freshness":"STALE","line1":"1 64602U 25137J   26263.00663287  .00016670  00000+0  50346-3 0  9997","line2":"2 64602  53.1582 149.9614 0002068  72.0542 288.0686 15.34397324 70527","mean_motion":15.34397324,"eccentricity":0.0002068,"inclination_deg":53.1582,"raan_deg":149.9614,"arg_perigee_deg":72.0542,"mean_anomaly_deg":288.0686,"bstar":0.00050346,"rev_number":7052,"period_min":93.847921752502,"perigee_km":461.29650644812,"apogee_km":464.12588126109,"semimajor_km":6840.8481938546,"source":"CELESTRAK","updated_at":"2026-09-21T09:00:35.365472Z"}}}